EW7771 Weather Reports


Display with metric or nautical units.
time (UTC)temp
F
wind
direction
speed
MPH
gust
MPH
rain 1hr
in
rain 24hr
in
rain mn
in
humidity
%
barometer
mb
20200711233525 65 128 2.0 7.0 0.00 0.00 0.00 76 1018.7
20200711233016 65 145 3.0 8.0 0.00 0.00 0.00 75 1018.6
20200711232521 65 99 5.0 10.0 0.00 0.00 0.00 73 1018.5
20200711232020 65 110 4.0 10.0 0.00 0.00 0.00 74 1018.5
20200711231520 65 153 4.0 8.0 0.00 0.00 0.00 74 1018.4
20200711231033 65 145 4.0 9.0 0.00 0.00 0.00 75 1018.5
20200711230523 65 150 4.0 9.0 0.00 0.00 0.00 73 1018.5
20200711230031 65 181 3.0 9.0 0.00 0.00 0.00 74 1018.3
20200711225518 66 127 3.0 9.0 0.00 0.00 0.00 73 1018.4
20200711225017 66 104 2.0 7.0 0.00 0.00 0.00 74 1018.4
20200711224505 66 335 2.0 5.0 0.00 0.00 0.00 72 1018.4
20200711224006 67 291 2.0 7.0 0.00 0.00 0.00 74 1018.4
20200711223502 67 61 2.0 7.0 0.00 0.00 0.00 74 1018.3
20200711223003 67 297 3.0 9.0 0.00 0.00 0.00 74 1018.3
20200711222510 67 316 4.0 10.0 0.00 0.00 0.00 73 1018.1
20200711222004 67 188 4.0 10.0 0.00 0.00 0.00 73 1018.3
20200711221502 67 205 4.0 12.0 0.00 0.00 0.00 70 1018.1
20200711221001 67 241 5.0 12.0 0.00 0.00 0.00 70 1018.1
20200711220500 68 199 4.0 10.0 0.00 0.00 0.00 71 1018.1
20200711220000 68 155 4.0 9.0 0.00 0.00 0.00 71 1018.0
20200711215502 68 173 4.0 8.0 0.00 0.00 0.00 71 1018.0
20200711215000 68 148 3.0 11.0 0.00 0.00 0.00 73 1017.8
20200711214501 68 155 3.0 11.0 0.00 0.00 0.00 69 1017.9
20200711213957 69 102 3.0 8.0 0.00 0.00 0.00 67 1017.8
20200711213507 69 146 2.0 7.0 0.00 0.00 0.00 67 1017.9
20200711212953 70 82 2.0 7.0 0.00 0.00 0.00 68 1017.8
20200711212453 70 306 3.0 10.0 0.00 0.00 0.00 65 1017.7
20200711211955 70 316 4.0 10.0 0.00 0.00 0.00 66 1017.7
20200711211456 70 142 3.0 10.0 0.00 0.00 0.00 70 1017.7
20200711211010 70 161 2.0 10.0 0.00 0.00 0.00 67 1017.6
20200711210448 71 203 2.0 10.0 0.00 0.00 0.00 65 1017.6
20200711205947 71 86 2.0 8.0 0.00 0.00 0.00 69 1017.4
20200711205449 72 123 2.0 8.0 0.00 0.00 0.00 65 1017.5
20200711204950 72 123 2.0 8.0 0.00 0.00 0.00 65 1017.4
20200711204459 72 18 3.0 9.0 0.00 0.00 0.00 66 1017.4
20200711203951 72 61 4.0 10.0 0.00 0.00 0.00 64 1017.3
20200711203452 72 113 3.0 10.0 0.00 0.00 0.00 63 1017.4
20200711202941 72 85 3.0 6.0 0.00 0.00 0.00 68 1017.3
20200711202451 71 88 2.0 6.0 0.00 0.00 0.00 64 1017.3
20200711202020 70 36 2.0 6.0 0.00 0.00 0.00 71 1017.4
20200711201443 71 5 2.0 6.0 0.00 0.00 0.00 67 1017.4
20200711200953 71 127 2.0 6.0 0.00 0.00 0.00 64 1017.5
20200711200439 70 219 1.0 6.0 0.00 0.00 0.00 66 1017.4
20200711195940 70 290 1.0 4.0 0.00 0.00 0.00 67 1017.3
20200711195435 71 92 2.0 7.0 0.00 0.00 0.00 64 1017.2
20200711194940 71 130 2.0 7.0 0.00 0.00 0.00 67 1017.2
20200711194433 72 271 2.0 6.0 0.00 0.00 0.00 72 1017.1
20200711193944 72 67 3.0 6.0 0.00 0.00 0.00 65 1017.2
20200711193446 73 88 1.0 6.0 0.00 0.00 0.00 70 1017.3
20200711192929 72 262 1.0 4.0 0.00 0.00 0.00 67 1017.3
20200711192439 72 260 2.0 5.0 0.00 0.00 0.00 67 1017.2
20200711191957 72 327 2.0 6.0 0.00 0.00 0.00 72 1017.2
20200711191432 72 161 2.0 6.0 0.00 0.00 0.00 67 1017.1
20200711190933 72 5 2.0 5.0 0.00 0.00 0.00 71 1017.1
20200711190437 72 349 2.0 8.0 0.00 0.00 0.00 67 1017.0
20200711185921 71 23 3.0 8.0 0.00 0.00 0.00 68 1017.1
20200711185431 71 285 3.0 9.0 0.00 0.00 0.00 68 1016.9
20200711184926 71 308 2.0 9.0 0.00 0.00 0.00 69 1016.9
20200711184423 71 319 2.0 5.0 0.00 0.00 0.00 70 1017.0
20200711184153 71 125 2.0 5.0 0.00 0.00 0.00 67 1016.9
20200711183434 70 115 1.0 5.0 0.00 0.00 0.00 71 1016.9
20200711182919 71 336 0.0 5.0 0.00 0.00 0.00 72 1016.9
20200711182421 71 313 0.0 0.0 0.00 0.00 0.00 73 1016.9
20200711181926 70 355 0.0 0.0 0.00 0.00 0.00 73 1016.9
20200711181422 71 19 1.0 4.0 0.00 0.00 0.00 72 1017.0
20200711180947 70 294 2.0 6.0 0.00 0.00 0.00 78 1017.0
20200711180429 69 209 2.0 6.0 0.00 0.00 0.00 75 1016.9
20200711175912 69 5 2.0 4.0 0.00 0.00 0.00 72 1016.9
20200711175412 69 267 2.0 4.0 0.00 0.00 0.00 72 1016.9
20200711174932 69 313 2.0 4.0 0.00 0.00 0.00 75 1016.9
20200711174415 69 315 2.0 5.0 0.00 0.00 0.00 75 1016.9
20200711173922 68 40 2.0 5.0 0.00 0.00 0.00 73 1016.9
20200711173412 68 312 1.0 4.0 0.00 0.00 0.00 72 1016.9
20200711172904 68 311 1.0 3.0 0.00 0.00 0.00 72 1016.9
20200711172407 68 294 1.0 5.0 0.00 0.00 0.00 73 1016.9
20200711171918 67 306 0.0 5.0 0.00 0.00 0.00 74 1016.9
20200711171411 66 215 0.0 0.0 0.00 0.00 0.00 78 1016.9
20200711170902 65 309 0.0 0.0 0.00 0.00 0.00 81 1016.9
20200711170407 65 72 0.0 0.0 0.00 0.00 0.00 85 1016.9
20200711165901 66 73 1.0 4.0 0.00 0.00 0.00 80 1016.9
20200711165356 65 73 1.0 4.0 0.00 0.00 0.00 79 1016.9
20200711164854 63 17 0.0 3.0 0.00 0.00 0.00 85 1017.0
20200711164400 63 190 0.0 1.0 0.00 0.00 0.00 86 1017.0
20200711163858 63 190 0.0 2.0 0.00 0.00 0.00 82 1017.0
20200711163355 61 190 0.0 2.0 0.00 0.00 0.00 87 1017.0
20200711162859 60 175 0.0 0.0 0.00 0.00 0.00 92 1017.0
20200711162628 60 175 0.0 0.0 0.00 0.00 0.00 91 1017.2
20200711161907 60 175 0.0 0.0 0.00 0.00 0.00 93 1017.2
20200711161410 59 175 0.0 0.0 0.00 0.00 0.00 93 1017.2
20200711160905 59 175 0.0 0.0 0.00 0.00 0.00 93 1017.2
20200711160352 59 175 0.0 0.0 0.00 0.00 0.00 94 1017.2
20200711155853 59 175 0.0 0.0 0.00 0.00 0.00 93 1017.2
20200711155354 59 175 0.0 1.0 0.00 0.00 0.00 94 1017.3
20200711154855 59 175 0.0 1.0 0.00 0.00 0.00 93 1017.3
20200711154351 58 175 0.0 0.0 0.00 0.00 0.00 95 1017.4
20200711153859 58 175 0.0 3.0 0.00 0.00 0.00 95 1017.4
20200711153355 58 175 0.0 3.0 0.00 0.00 0.00 96 1017.4
20200711152900 57 169 0.0 2.0 0.00 0.00 0.00 95 1017.5
20200711152350 57 169 0.0 2.0 0.00 0.00 0.00 95 1017.5
20200711151856 56 170 1.0 4.0 0.00 0.00 0.00 96 1017.5
20200711151352 56 167 1.0 4.0 0.00 0.00 0.00 97 1017.5
20200711150848 56 164 1.0 3.0 0.00 0.00 0.00 98 1017.5
20200711150348 55 219 0.0 4.0 0.00 0.00 0.00 98 1017.6
20200711145849 55 221 1.0 4.0 0.00 0.00 0.00 98 1017.6
20200711145350 54 171 0.0 4.0 0.00 0.00 0.00 99 1017.7
20200711144848 54 200 0.0 1.0 0.00 0.00 0.00 98 1017.6
20200711144344 53 200 0.0 0.0 0.00 0.00 0.00 99 1017.7
20200711143849 53 200 0.0 0.0 0.00 0.00 0.00 98 1017.7
20200711143340 53 200 0.0 0.0 0.00 0.00 0.00 99 1017.8
20200711142838 53 200 0.0 0.0 0.00 0.00 0.00 98 1017.8
20200711142339 52 200 0.0 0.0 0.00 0.00 0.00 98 1017.8
20200711141837 52 200 0.0 0.0 0.00 0.00 0.00 98 1017.8
20200711141347 52 200 0.0 0.0 0.00 0.00 0.00 98 1017.8
20200711140836 51 200 0.0 0.0 0.00 0.00 0.00 98 1017.9
20200711140334 51 200 0.0 0.0 0.00 0.00 0.00 98 1017.9
20200711135831 51 200 0.0 0.0 0.00 0.00 0.00 98 1017.9
20200711135340 51 200 0.0 0.0 0.00 0.00 0.00 98 1018.0
20200711134824 50 200 0.0 0.0 0.00 0.00 0.00 98 1017.9
20200711134325 50 200 0.0 0.0 0.00 0.00 0.00 98 1018.0
20200711133827 50 200 0.0 0.0 0.00 0.00 0.00 98 1017.9
20200711133326 50 200 0.0 0.0 0.00 0.00 0.00 98 1018.0
20200711132826 50 200 0.0 0.0 0.00 0.00 0.00 98 1017.9
20200711132322 50 200 0.0 0.0 0.00 0.00 0.00 98 1017.9
20200711131817 50 200 0.0 0.0 0.00 0.00 0.00 98 1017.9
20200711131323 50 200 0.0 0.0 0.00 0.00 0.00 98 1017.9
20200711130825 50 200 0.0 0.0 0.00 0.00 0.00 98 1017.9
20200711130320 50 200 0.0 0.0 0.00 0.00 0.00 98 1017.9
20200711125817 50 200 0.0 0.0 0.00 0.00 0.00 98 1017.8
20200711125318 50 200 0.0 0.0 0.00 0.00 0.00 98 1017.9
20200711124813 49 200 0.0 0.0 0.00 0.00 0.00 98 1017.8
20200711124315 50 200 0.0 0.0 0.00 0.00 0.00 98 1017.8
20200711123822 50 200 0.0 0.0 0.00 0.00 0.00 98 1017.8
20200711123314 50 200 0.0 0.0 0.00 0.00 0.00 98 1017.8
20200711122811 50 200 0.0 0.0 0.00 0.00 0.00 98 1017.8
20200711122318 50 200 0.0 0.0 0.00 0.00 0.00 98 1017.8
20200711121806 50 200 0.0 0.0 0.00 0.00 0.00 98 1017.8
20200711121308 50 200 0.0 0.0 0.00 0.00 0.00 98 1017.7
20200711120805 50 200 0.0 0.0 0.00 0.00 0.00 98 1017.7
20200711120301 50 200 0.0 0.0 0.00 0.00 0.00 98 1017.6
20200711115809 50 200 0.0 0.0 0.00 0.00 0.00 98 1017.6
20200711115255 50 200 0.0 0.0 0.00 0.00 0.00 98 1017.6
20200711114754 50 200 0.0 0.0 0.00 0.00 0.00 98 1017.6
20200711114255 50 200 0.0 0.0 0.00 0.00 0.00 98 1017.6
20200711113754 50 200 0.0 0.0 0.00 0.00 0.00 98 1017.6
20200711113254 50 200 0.0 0.0 0.00 0.00 0.00 97 1017.6
20200711112752 50 200 0.0 0.0 0.00 0.00 0.00 98 1017.7
20200711112249 50 200 0.0 0.0 0.00 0.00 0.00 97 1017.6
20200711111749 50 200 0.0 0.0 0.00 0.00 0.00 98 1017.6
20200711111253 50 200 0.0 0.0 0.00 0.00 0.00 97 1017.7
20200711110751 50 200 0.0 0.0 0.00 0.00 0.00 98 1017.7
20200711110247 50 200 0.0 0.0 0.00 0.00 0.00 97 1017.8
20200711105747 50 200 0.0 0.0 0.00 0.00 0.00 97 1017.8
20200711105241 50 200 0.0 0.0 0.00 0.00 0.00 97 1017.8
20200711104740 50 200 0.0 0.0 0.00 0.00 0.00 97 1017.8
20200711104238 50 200 0.0 0.0 0.00 0.00 0.00 97 1017.9
20200711103743 50 200 0.0 0.0 0.00 0.00 0.00 97 1018.0
20200711103234 51 200 0.0 0.0 0.00 0.00 0.00 97 1018.0
20200711102733 51 200 0.0 0.0 0.00 0.00 0.00 97 1018.0
20200711102236 51 200 0.0 0.0 0.00 0.00 0.00 97 1018.0
20200711101731 51 200 0.0 0.0 0.00 0.00 0.00 97 1018.1
20200711101230 51 200 0.0 0.0 0.00 0.00 0.00 97 1018.1
20200711100728 51 200 0.0 0.0 0.00 0.00 0.00 97 1018.3
20200711100229 51 200 0.0 0.0 0.00 0.00 0.00 97 1018.1
20200711095721 51 200 0.0 0.0 0.00 0.00 0.00 97 1018.3
20200711095221 51 200 0.0 0.0 0.00 0.00 0.00 97 1018.3
20200711094723 51 200 0.0 0.0 0.00 0.00 0.00 97 1018.3
20200711094221 51 200 0.0 0.0 0.00 0.00 0.00 97 1018.5
20200711093732 52 200 0.0 0.0 0.00 0.00 0.00 97 1018.5
20200711093222 52 200 0.0 0.0 0.00 0.00 0.00 97 1018.4
20200711092722 52 200 0.0 0.0 0.00 0.00 0.00 97 1018.4
20200711092232 52 200 0.0 0.0 0.00 0.00 0.00 97 1018.5
20200711091218 52 200 0.0 0.0 0.00 0.00 0.00 97 1018.7
20200711090718 52 200 0.0 0.0 0.00 0.00 0.00 97 1018.7
20200711090221 52 200 0.0 0.0 0.00 0.00 0.00 97 1018.7
20200711085715 53 200 0.0 0.0 0.00 0.00 0.00 97 1018.5
20200711085216 53 200 0.0 0.0 0.00 0.00 0.00 97 1018.6
20200711084715 53 200 0.0 0.0 0.00 0.00 0.00 97 1018.6
20200711084215 53 200 0.0 0.0 0.00 0.00 0.00 97 1018.7
20200711083714 53 200 0.0 0.0 0.00 0.00 0.00 97 1018.7
20200711083216 53 200 0.0 0.0 0.00 0.00 0.00 96 1018.7
20200711082710 53 200 0.0 0.0 0.00 0.00 0.00 97 1018.7
20200711082210 53 200 0.0 0.0 0.00 0.00 0.00 97 1018.8
20200711081712 53 200 0.0 0.0 0.00 0.00 0.00 97 1018.8
20200711081211 53 200 0.0 0.0 0.00 0.00 0.00 96 1018.7
20200711080709 53 200 0.0 0.0 0.00 0.00 0.00 96 1018.8
20200711080207 53 200 0.0 0.0 0.00 0.00 0.00 96 1018.8
20200711075700 53 200 0.0 0.0 0.00 0.00 0.00 96 1018.8
20200711075206 53 200 0.0 0.0 0.00 0.00 0.00 96 1018.8
20200711074656 53 200 0.0 0.0 0.00 0.00 0.00 96 1018.8
20200711074155 53 200 0.0 0.0 0.00 0.00 0.00 96 1018.8
20200711073653 54 200 0.0 0.0 0.00 0.00 0.00 96 1018.9
20200711073156 54 200 0.0 0.0 0.00 0.00 0.00 96 1019.0
20200711072649 54 200 0.0 0.0 0.00 0.00 0.00 96 1019.0
20200711072152 54 200 0.0 0.0 0.00 0.00 0.00 96 1018.9
20200711071649 54 200 0.0 0.0 0.00 0.00 0.00 96 1019.0
20200711071148 54 200 0.0 0.0 0.00 0.00 0.00 96 1019.0
20200711070649 54 200 0.0 0.0 0.00 0.00 0.00 96 1019.0
20200711070145 54 200 0.0 0.0 0.00 0.00 0.00 96 1019.1
20200711065646 55 200 0.0 0.0 0.00 0.00 0.00 95 1019.1
20200711065146 55 200 0.0 0.0 0.00 0.00 0.00 95 1019.2
20200711064645 55 200 0.0 0.0 0.00 0.00 0.00 95 1019.1
20200711064143 55 200 0.0 0.0 0.00 0.00 0.00 95 1019.1
20200711063648 55 200 0.0 0.0 0.00 0.00 0.00 95 1019.1
20200711063135 55 200 0.0 0.0 0.00 0.00 0.00 95 1019.1
20200711062635 55 200 0.0 0.0 0.00 0.00 0.00 95 1019.1
20200711062133 55 200 0.0 0.0 0.00 0.00 0.00 94 1019.1
20200711061633 56 200 0.0 0.0 0.00 0.00 0.00 93 1019.1
20200711061134 56 200 0.0 0.0 0.00 0.00 0.00 93 1019.1
20200711060624 56 200 0.0 0.0 0.00 0.00 0.00 94 1019.2
20200711060127 56 200 0.0 0.0 0.00 0.00 0.00 93 1019.2
20200711055625 56 200 0.0 0.0 0.00 0.00 0.00 92 1019.1
20200711055125 56 200 0.0 0.0 0.00 0.00 0.00 93 1019.2
20200711054624 57 200 0.0 0.0 0.00 0.00 0.00 92 1019.3
20200711054125 57 200 0.0 0.0 0.00 0.00 0.00 91 1019.2
20200711053619 57 200 0.0 0.0 0.00 0.00 0.00 92 1019.2
20200711053117 57 200 0.0 0.0 0.00 0.00 0.00 91 1019.2
20200711052614 57 200 0.0 0.0 0.00 0.00 0.00 91 1019.2
20200711052119 57 200 0.0 0.0 0.00 0.00 0.00 90 1019.1
20200711051611 58 200 0.0 0.0 0.00 0.00 0.00 90 1019.1
20200711051107 58 200 0.0 0.0 0.00 0.00 0.00 88 1019.0
20200711050606 59 200 0.0 0.0 0.00 0.00 0.00 88 1019.1
20200711050106 59 200 0.0 0.0 0.00 0.00 0.00 88 1019.1
20200711045601 59 200 0.0 0.0 0.00 0.00 0.00 88 1019.1
20200711045102 60 200 0.0 0.0 0.00 0.00 0.00 88 1019.1
20200711044611 60 200 0.0 0.0 0.00 0.00 0.00 86 1019.1
20200711044119 60 200 0.0 0.0 0.00 0.00 0.00 86 1019.1
20200711043557 60 200 0.0 0.0 0.00 0.00 0.00 86 1019.0
20200711043052 61 200 0.0 2.0 0.00 0.00 0.00 86 1019.0
20200711042552 61 200 1.0 2.0 0.00 0.01 0.00 85 1019.0
20200711042053 62 200 1.0 3.0 0.00 0.01 0.00 84 1018.9
20200711041552 62 200 2.0 4.0 0.00 0.02 0.00 84 1018.9
20200711041050 62 200 2.0 4.0 0.00 0.04 0.00 83 1019.0
20200711040549 63 173 2.0 4.0 0.00 0.06 0.00 81 1019.0
20200711040047 63 184 2.0 4.0 0.00 0.09 0.00 81 1018.9
20200711035546 63 181 2.0 5.0 0.00 0.09 0.00 81 1018.9
20200711035048 64 186 2.0 5.0 0.00 0.09 0.00 80 1019.0
20200711034542 64 196 2.0 4.0 0.00 0.10 0.00 79 1019.0
20200711034043 65 146 2.0 3.0 0.00 0.10 0.00 77 1019.0
20200711033550 65 153 2.0 5.0 0.00 0.10 0.00 78 1019.0
20200711033044 66 146 2.0 5.0 0.00 0.10 0.00 76 1019.0
20200711032545 66 161 2.0 6.0 0.00 0.10 0.00 75 1019.0
20200711032058 67 214 2.0 6.0 0.00 0.10 0.00 75 1019.0
20200711031541 67 147 2.0 5.0 0.00 0.10 0.00 72 1019.0
20200711031042 67 148 2.0 5.0 0.00 0.10 0.00 69 1019.0
20200711030539 68 165 3.0 7.0 0.00 0.10 0.00 69 1019.0
20200711030041 68 145 4.0 8.0 0.00 0.10 0.00 67 1019.0
20200711025538 68 142 2.0 8.0 0.00 0.10 0.00 70 1019.0
20200711025039 68 144 1.0 3.0 0.00 0.10 0.00 74 1019.0
20200711024540 68 149 0.0 2.0 0.00 0.10 0.00 76 1019.0
20200711024037 69 192 1.0 7.0 0.00 0.10 0.00 72 1019.1
20200711023536 69 192 2.0 7.0 0.00 0.10 0.00 66 1019.1
20200711023038 69 163 2.0 5.0 0.00 0.10 0.00 67 1019.1
20200711022536 69 191 1.0 5.0 0.00 0.10 0.00 64 1019.1
20200711022027 69 122 0.0 3.0 0.00 0.10 0.00 66 1019.1
20200711021529 69 355 0.0 0.0 0.00 0.10 0.00 72 1019.2
20200711021035 69 355 0.0 3.0 0.00 0.10 0.00 69 1019.1
20200711020527 69 321 1.0 3.0 0.00 0.10 0.00 64 1019.1
20200711020027 69 99 1.0 3.0 0.00 0.10 0.00 70 1019.0
20200711015527 70 158 1.0 5.0 0.00 0.10 0.00 67 1019.0
20200711015023 70 192 1.0 5.0 0.00 0.10 0.00 62 1018.9
20200711014520 70 202 1.0 4.0 0.00 0.10 0.00 62 1019.0
20200711014019 71 89 2.0 6.0 0.00 0.10 0.00 61 1019.0
20200711013518 71 165 2.0 7.0 0.00 0.10 0.00 63 1019.0
20200711013017 71 147 1.0 7.0 0.00 0.10 0.00 63 1019.1
20200711012527 71 228 1.0 4.0 0.00 0.10 0.00 62 1019.1
20200711012026 71 231 1.0 5.0 0.00 0.10 0.00 62 1019.1
20200711011512 71 167 2.0 5.0 0.00 0.10 0.00 62 1019.2
20200711011012 72 325 2.0 6.0 0.00 0.10 0.00 61 1019.2
20200711010513 72 0 2.0 6.0 0.00 0.10 0.00 61 1019.1
20200711010018 71 150 1.0 6.0 0.00 0.10 0.00 60 1019.1
20200711005510 71 139 0.0 6.0 0.00 0.10 0.00 64 1019.2
20200711005007 71 355 0.0 0.0 0.00 0.10 0.00 65 1019.2
20200711004506 71 355 0.0 0.0 0.00 0.10 0.00 66 1019.2
20200711004012 72 329 1.0 3.0 0.00 0.10 0.00 61 1019.3
20200711003504 72 296 2.0 7.0 0.00 0.10 0.00 59 1019.4
20200711003006 72 293 2.0 7.0 0.00 0.10 0.00 58 1019.5
20200711002504 72 315 1.0 5.0 0.00 0.10 0.00 59 1019.5
20200711002000 72 265 2.0 11.0 0.00 0.10 0.00 60 1019.5
20200711001507 72 168 3.0 11.0 0.00 0.10 0.00 58 1019.5
20200711001000 73 144 3.0 8.0 0.00 0.10 0.00 58 1019.5
20200711000501 73 334 3.0 8.0 0.00 0.10 0.00 61 1019.5
20200710235958 73 332 2.0 8.0 0.00 0.10 0.00 58 1019.6
20200710235505 72 0 2.0 7.0 0.00 0.10 0.00 60 1019.6
20200710235000 72 291 2.0 9.0 0.00 0.10 0.00 57 1019.6
20200710234454 72 137 2.0 9.0 0.00 0.10 0.00 61 1019.7
20200710234443 73 325 2.0 6.0 0.00 0.10 0.00 56 1019.8